Chicago Midway, IL

12:16 PM CDT on April 26, 2017 (GMT -0500)
Chicago-Midway

Weather History for KMDW - October, 2012

Change the Weather History Date:

Tuesday, October 16, 2012

  Actual Average Record
Temperature  
Mean Temperature 57 °F 54 °F  
Max Temperature 70 °F 63 °F 87 °F (1963)
Min Temperature 44 °F 46 °F 30 °F (1944)
Degree Days  
Heating Degree Days 8 11  
Month to date heating degree days 176 142  
Since 1 July heating degree days 249 224  
Cooling Degree Days 0 0  
Month to date cooling degree days 1 13  
Year to date cooling degree days 1468 1042  
Growing Degree Days 7 (Base 50)    
Moisture  
Dew Point 42 °F    
Average Humidity 57    
Maximum Humidity 79    
Minimum Humidity 29    
Precipitation  
Precipitation 0.00 in 0.10 in 0.81 in (2006)
Month to date precipitation 1.33 1.61  
Year to date precipitation 22.31 31.47  
Sea Level Pressure  
Sea Level Pressure 29.77 in    
Wind  
Wind Speed 13 mph (SSE)    
Max Wind Speed 24 mph    
Max Gust Speed 35 mph    
Visibility 10 miles    
Events      
T = Trace of Precipitation, MM = Missing Value Source: NWS Daily Summary

Daily Weather History Graph

Daily Weather History Graph

Search for Another Location

Airport or City:

Trip Planner

Search our weather history database for the weather conditions in past years. The results will help you decide how hot, cold, wet, or windy it might be!

Date:

Astronomy

Oct. 16, 2012 Rise Set
Actual Time 7:04 AM CDT 6:07 PM CDT
Civil Twilight 6:36 AM CDT 6:35 PM CDT
Nautical Twilight 6:04 AM CDT 7:07 PM CDT
Astronomical Twilight 5:32 AM CDT 7:39 PM CDT
Moon 8:29 AM CDT (10/16) 6:49 PM CDT (10/16)
Length of Visible Light 11h 58m
Length of Day
11h 02m
New Moon, 2% of the Moon is Illuminated
Oct 16
New Moon
Oct 21
First Quarter
Oct 29
Full
Nov 6
Last Quarter
Nov 13
New

Hourly Weather History & Observations

Time (CDT) Temp. Windchill Dew Point Humidity Pressure Visibility Wind Dir Wind Speed Gust Speed Precip Events Conditions
12:51 AM 46.0 °F 43.1 °F 39.9 °F 79% 29.98 in 10.0 mi SSE 5.8 mph - N/A   Clear
1:51 AM 46.0 °F 43.1 °F 39.0 °F 76% 29.97 in 10.0 mi SE 5.8 mph - N/A   Clear
2:51 AM 46.0 °F 43.1 °F 37.9 °F 73% 29.96 in 10.0 mi SSE 5.8 mph - N/A   Clear
3:51 AM 45.0 °F 41.8 °F 37.9 °F 76% 29.94 in 10.0 mi SSE 5.8 mph - N/A   Clear
4:51 AM 44.1 °F 40.1 °F 37.0 °F 76% 29.93 in 10.0 mi SSE 6.9 mph - N/A   Partly Cloudy
5:51 AM 44.1 °F 39.0 °F 37.0 °F 76% 29.93 in 10.0 mi SSE 9.2 mph - N/A   Partly Cloudy
6:51 AM 45.0 °F 41.8 °F 37.0 °F 74% 29.91 in 10.0 mi SSE 5.8 mph - N/A   Partly Cloudy
7:51 AM 46.0 °F 43.1 °F 37.0 °F 71% 29.91 in 10.0 mi SSE 5.8 mph - N/A   Scattered Clouds
8:51 AM 50.0 °F - 37.4 °F 62% 29.90 in 10.0 mi SSE 9.2 mph - N/A   Scattered Clouds
9:51 AM 54.0 °F - 39.0 °F 57% 29.89 in 10.0 mi SSE 8.1 mph - N/A   Scattered Clouds
10:51 AM 59.0 °F - 41.0 °F 51% 29.86 in 10.0 mi South 16.1 mph 24.2 mph N/A   Mostly Cloudy
11:51 AM 62.1 °F - 42.1 °F 48% 29.83 in 10.0 mi South 17.3 mph 23.0 mph N/A   Mostly Cloudy
12:51 PM 64.9 °F - 42.1 °F 43% 29.77 in 10.0 mi SSE 19.6 mph 28.8 mph N/A   Scattered Clouds
1:51 PM 68.0 °F - 42.8 °F 40% 29.72 in 10.0 mi SSE 16.1 mph 27.6 mph N/A   Partly Cloudy
2:51 PM 70.0 °F - 43.0 °F 38% 29.66 in 10.0 mi SSE 16.1 mph 26.5 mph N/A   Mostly Cloudy
3:51 PM 69.8 °F - 44.6 °F 40% 29.63 in 10.0 mi South 17.3 mph 24.2 mph N/A   Mostly Cloudy
4:51 PM 69.1 °F - 45.0 °F 42% 29.59 in 10.0 mi South 17.3 mph 31.1 mph N/A   Mostly Cloudy
5:51 PM 68.0 °F - 46.0 °F 45% 29.59 in 10.0 mi South 18.4 mph 25.3 mph N/A   Mostly Cloudy
6:51 PM 66.9 °F - 46.9 °F 49% 29.59 in 10.0 mi South 13.8 mph 23.0 mph N/A   Mostly Cloudy
7:51 PM 66.0 °F - 46.9 °F 50% 29.59 in 10.0 mi South 15.0 mph 23.0 mph N/A   Mostly Cloudy
8:51 PM 64.9 °F - 48.0 °F 54% 29.57 in 10.0 mi South 13.8 mph 21.9 mph N/A   Mostly Cloudy
9:51 PM 64.9 °F - 48.9 °F 56% 29.57 in 10.0 mi South 16.1 mph 27.6 mph N/A   Overcast
10:51 PM 64.9 °F - 48.9 °F 56% 29.57 in 10.0 mi South 12.7 mph 20.7 mph N/A   Overcast
11:51 PM 66.9 °F - 50.0 °F 54% 29.56 in 10.0 mi South 16.1 mph 26.5 mph N/A   Overcast